POPACS 3

Last updated on Sat Dec 13 2025 00:03:48 GMT+0000 (Coordinated Universal Time)

1 39270U 13055F 25345.66147175 .00011790 00000+0 29364-3 0 9995 2 39270 81.0042 71.8942 0567254 279.5040 74.2508 14.51820327611305
UTC large
Height (km)
Speed (km/s)
/
Latitude / Longitude
Inclination (degrees)
Orbital Period (minutes)
Azimuth
Elevation
Range (km)
Doppler Factor

Next 0 passes for location: London (51.5072 / 0.1276)

Sorry there are no passes over London.